sat.trackr.live / text

‹ back to catalog

KUIPER-00011

NORAD 63727 · 2025-088D

PAYLOAD ACTIVE UNKNOWN

§ Identity

Operator
Country
US
Launch date
2025-04-28
Launch site
AFETR
Launch vehicle
Mass (kg)
RCS (m²)

External: N2YO · Heavens-Above · Gunter

§ Orbital elements

Epoch: 2026-09-20T19:50:56.823648Z

Period
97.30 min
Inclination
51.9016°
Eccentricity
0.0000379
Mean motion
14.79930655 rev/d
Perigee alt
629.3 km
Apogee alt
629.8 km
Semi-major
7,007.7 km
B*
7.6003e-5
RAAN
307.7646°
Arg perigee
67.9893°
Mean anomaly
292.1110°
Rev number
7,665

§ Raw data

KUIPER-000111 63727U 25088D   26263.82704657  .00000358  00000+0  76003-4 0  99912 63727  51.9016 307.7646 0000379  67.9893 292.1110 14.79930655 76652

JSON: /api/v1/satellites/63727 · /tle

For live sub-satellite position, see the globe view (requires WebGL).

§ Visibility from observer

Set your observer location to see the next 7 days of passes ≥ 10°. The values pass through the URL so the page stays shareable.

No JS? Fill the form by hand. The geolocation button needs JavaScript.